Starlink 30073

operational
NORAD ID: 56840 Int'l Des: 2023-079 Owner: SPXS Country: US Constellation: starlink
LEOCIRCULAR

关于 Starlink 30073

正在加载描述...

实时位置

正在加载3D地球...

即将过境

高度历史

Altitude vs Time

uPlot chart will show altitude changes over time

两行轨道根数

1 56840U 23079T 25303.36801132 .00282873 00000-0 13688-2 0 9999
2 56840 42.9840 347.9403 0004211 95.1713 264.9639 15.80939139134539
Epoch: Oct 30, 2025 • Age: 107 hours

当前状态

高度 329.6 km
速度 7.71 km/s
星下点 -31.75°S, 159.17°W
发射日期 Jun 4, 2023
运行时间 2.4 years
类型 internet

技术详情

分类 Payload
质量 730.00 kg
干质量 700.00 kg
总质量 730.00 kg
长度 0.30 m
直径 4.10 m
跨度 29.00 m
形状 Box + pan
制造商 SPXS
平台类型 Starlink V2M
阶段状态 In Orbit
所有者/国家 SPXS/US

大型星座

Loading constellations...